Location: Newark
(48.8604°N, 2.3376°E)
Time: 00:11:21
(UTC+00:00)

N. Korean satellite - Pass Details

Date: 02 October 2021
Orbit: 450 x 495 km, 97.3° (Epoch: 25 October)

Event Time Altitude Azimuth Distance (km) Brightness Sun altitude
Rises 04:55:15 0° 17° (NNE) 2,551 10.5 -10.1°
Reaches altitude 10° 04:57:21 10° 23° (NNE) 1,674 9.7 -9.8°
Maximum altitude 05:00:52 50° 99° (E) 630 7.6 -9.2°
Drops below altitude 10° 05:04:24 10° 176° (S) 1,680 9.3 -8.6°
Sets 05:06:31 0° 182° (S) 2,561 10.2 -8.3°
